Weather History for Montpelier, VT

Change the Weather History Date:

Sunday, December 16, 2012

  Actual Average Record
Temperature  
Mean Temperature 20 °F 23 °F  
Max Temperature 25 °F 31 °F 53 °F (1982)
Min Temperature 15 °F 14 °F -19 °F (1951)
Degree Days  
Heating Degree Days 45 42  
Month to date heating degree days 539 627  
Since 1 July heating degree days 2326 2473  
Moisture  
Dew Point 18 °F    
Average Humidity 80    
Maximum Humidity 92    
Minimum Humidity 68    
Precipitation  
Precipitation 0.11 in 0.09 in 1.20 in (2007)
Month to date precipitation 1.78 1.55  
Year to date precipitation 32.26 36.08  
Sea Level Pressure  
Sea Level Pressure 30.19 in    
Wind  
Wind Speed 5 mph (South)    
Max Wind Speed 16 mph    
Max Gust Speed 21 mph    
Visibility 4 miles    
Events Snow    
T = Trace of Precipitation, MM = Missing Value Source: NWS Daily Summary

Daily Weather History Graph

Daily Weather History Graph

Search for Another Location

Airport:

Trip Planner

Search our weather history database for the weather conditions in past years. The results will help you decide how hot, cold, wet, or windy it might be!

Date:

Astronomy

Dec. 16, 2012 Rise Set
Actual Time 7:19 AM EST 4:12 PM EST
Civil Twilight 6:46 AM EST 4:45 PM EST
Nautical Twilight 6:09 AM EST 5:22 PM EST
Astronomical Twilight 5:34 AM EST 5:57 PM EST
Moon 9:45 AM EST (12/16) 8:30 PM EST (12/16)
Length of Visible Light 9h 59m
Length of Day
8h 52m
Waxing Crescent, 16% of the Moon is Illuminated
Dec 16
Waxing Crescent
Dec 20
First Quarter
Dec 28
Full
Jan 4
Last Quarter
Jan 11
New

Hourly Weather History & Observations

Time (EST) Temp. Windchill Dew Point Humidity Pressure Visibility Wind Dir Wind Speed Gust Speed Precip Events Conditions
12:51 AM 16.0 °F - 12.0 °F 84% 30.36 in 10.0 mi Calm Calm - N/A   Clear
1:51 AM 16.0 °F - 12.0 °F 84% 30.34 in 10.0 mi Calm Calm - N/A   Clear
2:51 AM 15.1 °F - 10.0 °F 80% 30.33 in 10.0 mi Calm Calm - N/A   Clear
3:17 AM 15.8 °F - 10.4 °F 79% 30.27 in 10.0 mi Calm Calm - N/A   Mostly Cloudy
3:51 AM 17.1 °F - 12.0 °F 81% 30.32 in 10.0 mi Calm Calm - N/A   Overcast
4:51 AM 16.0 °F - 10.9 °F 81% 30.32 in 10.0 mi Calm Calm - N/A   Overcast
5:51 AM 17.1 °F - 12.0 °F 81% 30.30 in 10.0 mi Calm Calm - N/A   Overcast
6:51 AM 18.0 °F - 12.0 °F 78% 30.30 in 10.0 mi Calm Calm - N/A   Overcast
7:51 AM 19.9 °F 13.4 °F 16.0 °F 85% 30.29 in 7.0 mi ENE 4.6 mph - 0.00 in   Overcast
8:51 AM 23.0 °F 13.9 °F 16.0 °F 74% 30.30 in 10.0 mi SSE 8.1 mph - N/A   Overcast
9:51 AM 24.1 °F 12.0 °F 15.1 °F 69% 30.29 in 10.0 mi SSE 13.8 mph 19.6 mph N/A   Overcast
10:51 AM 24.1 °F 13.7 °F 16.0 °F 71% 30.28 in 4.0 mi South 10.4 mph - 0.00 in Snow Light Snow
11:18 AM 23.0 °F 11.1 °F 17.6 °F 80% 30.20 in 2.0 mi South 12.7 mph - 0.00 in Snow Light Snow
11:36 AM 23.0 °F 11.1 °F 17.6 °F 80% 30.20 in 1.2 mi South 12.7 mph - 0.00 in Snow Light Snow
11:46 AM 23.0 °F 14.7 °F 17.6 °F 80% 30.20 in 1.2 mi South 6.9 mph - 0.01 in Snow Light Snow
11:51 AM 23.0 °F 13.1 °F 18.0 °F 81% 30.26 in 1.2 mi South 9.2 mph - 0.01 in Snow Light Snow
12:08 PM 21.2 °F 12.6 °F 17.6 °F 86% 30.19 in 0.8 mi South 6.9 mph - 0.00 in Snow Light Snow
12:27 PM 23.0 °F 17.0 °F 19.4 °F 86% 30.18 in 1.0 mi South 4.6 mph - 0.01 in Snow Light Snow
12:31 PM 23.0 °F 17.0 °F 19.4 °F 86% 30.18 in 1.5 mi SSE 4.6 mph - 0.01 in Snow Light Snow
12:42 PM 23.0 °F 14.7 °F 19.4 °F 86% 30.18 in 2.0 mi South 6.9 mph - 0.01 in Snow Light Snow
12:49 PM 23.0 °F 14.7 °F 19.4 °F 86% 30.18 in 1.8 mi South 6.9 mph - N/A Snow Light Snow
12:51 PM 21.9 °F 15.7 °F 19.0 °F 89% 30.25 in 2.0 mi SSE 4.6 mph - 0.01 in Snow Light Snow
1:12 PM 23.0 °F 15.8 °F 19.4 °F 86% 30.17 in 3.0 mi South 5.8 mph - 0.00 in Snow Light Snow
1:34 PM 23.0 °F 15.8 °F 19.4 °F 86% 30.16 in 2.5 mi South 5.8 mph - 0.00 in Snow Light Snow
1:51 PM 23.0 °F 14.7 °F 19.0 °F 85% 30.22 in 1.8 mi SSE 6.9 mph - 0.00 in Snow Light Snow
1:58 PM 23.0 °F 15.8 °F 19.4 °F 86% 30.16 in 3.0 mi South 5.8 mph - 0.00 in Snow Light Snow
2:34 PM 23.0 °F 17.0 °F 19.4 °F 86% 30.14 in 1.8 mi SSE 4.6 mph - 0.00 in Snow Light Snow
2:38 PM 23.0 °F 17.0 °F 19.4 °F 86% 30.14 in 1.2 mi SSE 4.6 mph - 0.00 in Snow Light Snow
2:42 PM 23.0 °F 15.8 °F 19.4 °F 86% 30.14 in 0.8 mi South 5.8 mph - 0.01 in Snow Light Snow
2:51 PM 21.9 °F 12.5 °F 19.9 °F 92% 30.21 in 0.8 mi South 8.1 mph - 0.01 in Snow Light Snow
3:25 PM 21.2 °F 11.7 °F 19.4 °F 93% 30.13 in 1.0 mi South 8.1 mph - 0.02 in Snow Light Snow
3:32 PM 21.2 °F 12.6 °F 19.4 °F 93% 30.13 in 1.2 mi South 6.9 mph - 0.02 in Snow Light Snow
3:39 PM 23.0 °F 17.0 °F 19.4 °F 86% 30.13 in 2.0 mi South 4.6 mph - 0.02 in Snow Light Snow
3:51 PM 23.0 °F 14.7 °F 19.0 °F 85% 30.20 in 2.5 mi South 6.9 mph - 0.02 in Snow Light Snow
4:02 PM 23.0 °F 13.9 °F 19.4 °F 86% 30.13 in 4.0 mi South 8.1 mph - 0.00 in Snow Light Snow
4:38 PM 21.2 °F 12.6 °F 19.4 °F 93% 30.12 in 2.0 mi South 6.9 mph - 0.00 in Snow Light Snow
4:51 PM 21.9 °F 14.5 °F 19.0 °F 89% 30.19 in 2.5 mi SSE 5.8 mph - 0.00 in Snow Light Snow
5:11 PM 21.2 °F 14.9 °F 19.4 °F 93% 30.12 in 3.0 mi South 4.6 mph - 0.01 in Snow Light Snow
5:51 PM 23.0 °F 14.7 °F 19.9 °F 88% 30.18 in 9.0 mi South 6.9 mph - 0.01 in   Overcast
6:51 PM 23.0 °F 15.8 °F 19.9 °F 88% 30.16 in 3.0 mi South 5.8 mph - 0.00 in Snow Light Snow
7:00 PM 23.0 °F 15.8 °F 19.4 °F 86% 30.10 in 2.0 mi SSW 5.8 mph - 0.01 in Snow Light Snow
7:10 PM 23.0 °F 14.7 °F 21.2 °F 93% 30.10 in 6.0 mi South 6.9 mph - 0.01 in   Overcast
7:51 PM 24.1 °F 15.2 °F 21.0 °F 88% 30.16 in 6.0 mi South 8.1 mph - 0.01 in Snow Light Snow
8:37 PM 24.8 °F 16.9 °F 21.2 °F 86% 30.10 in 2.5 mi South 6.9 mph - 0.01 in Snow Light Snow
8:42 PM 24.8 °F 17.9 °F 21.2 °F 86% 30.10 in 1.8 mi South 5.8 mph - 0.01 in Snow Light Snow
8:51 PM 24.1 °F 17.0 °F 21.0 °F 88% 30.16 in 1.5 mi South 5.8 mph - 0.01 in Snow Light Snow
9:19 PM 24.8 °F 17.9 °F 21.2 °F 86% 30.09 in 2.0 mi South 5.8 mph - 0.00 in Snow Light Snow
9:39 PM 24.8 °F 17.9 °F 21.2 °F 86% 30.08 in 1.5 mi SSE 5.8 mph - 0.02 in   Overcast
9:51 PM 24.1 °F 18.2 °F 21.9 °F 91% 30.13 in 2.0 mi South 4.6 mph - 0.02 in Snow Light Snow
10:07 PM 24.8 °F 20.5 °F 21.2 °F 86% 30.08 in 3.0 mi Variable 3.5 mph - 0.01 in   Overcast
10:33 PM 24.8 °F 17.9 °F 21.2 °F 86% 30.08 in 3.0 mi South 5.8 mph - 0.01 in   Overcast
10:51 PM 24.1 °F 19.7 °F 21.9 °F 91% 30.14 in 5.0 mi South 3.5 mph - 0.01 in   Overcast
11:15 PM 24.8 °F 17.9 °F 21.2 °F 86% 30.09 in 3.0 mi South 5.8 mph - 0.00 in   Overcast
11:51 PM 25.0 °F 17.1 °F 21.0 °F 85% 30.13 in 10.0 mi South 6.9 mph - 0.00 in   Overcast